This demonstration page uses our WeatherBlox Daily Observations layout. Learn more.

Left ArrowRight Arrow

Hourly Observations for July 10, 2019

Temp ( °F °C ) Dew Point ( °F °C ) Humidity (%) Winds ( mph kmh ) Pressure ( in mb ) Visibility ( mi km ) Precip ( " mm )
12:56 am 00:56 Clear 70 21.1 68 20 93 93 SSE 5 7 29.98 1015 10 16 0.00 0.00
1:56 am 01:56 Mostly Cloudy with Light Rain 71 21.7 69 20.6 94 94 E 6 9 29.95 1014 10 16 0.00 0.03
2:56 am 02:56 Partly Cloudy 69 20.6 62 16.7 78 78 N 21 33 30.03 1017 10 16 0.00 0.03
3:56 am 03:56 Mostly Cloudy with Thunderstorms 68 20 62 16.7 81 81 N 16 26 30.04 1017 9 14 0.00 0.03
4:17 am 04:17 Cloudy with Light Rain 66 19 63 17 88 88 Calm 30.04 1017 10 16 0.01 0.25
4:56 am 04:56 Clear 67 19.4 62 16.7 84 84 N 8 13 30.04 1017 10 16 0.01 0.25
5:56 am 05:56 Cloudy 66 18.9 61 16.1 84 84 NW 6 9 30.11 1020 10 16 0.00 0.00
6:56 am 06:56 Cloudy 65 18.3 59 15 81 81 NNE 7 11 30.14 1021 10 16 0.00 0.00
7:56 am 07:56 Sunny 66 18.9 57 13.9 73 73 N 6 9 30.16 1022 10 16 0.00 0.00
8:56 am 08:56 Partly Cloudy 67 19.4 56 13.3 68 68 N 13 20 30.16 1022 10 16 0.00 0.00
9:56 am 09:56 Sunny 70 21.1 55 12.8 59 59 N 13 20 30.17 1022 10 16 0.00 0.00
10:56 am 10:56 Sunny 74 23.3 55 12.8 52 52 N 18 30 30.16 1021 10 16 0.00 0.00
11:56 am 11:56 Sunny 75 23.9 54 12.2 48 48 NNW 15 24 30.17 1022 10 16 0.00 0.00
12:56 pm 12:56 Sunny 77 25 55 12.8 47 47 NW 10 17 30.16 1022 10 16 0.00 0.00
1:56 pm 13:56 Sunny 79 26.1 55 12.8 44 44 NNW 14 22 30.15 1021 10 16 0.00 0.00
2:56 pm 14:56 Sunny 80 26.7 55 12.8 42 42 NW 12 19 30.14 1021 10 16 0.00 0.00
3:56 pm 15:56 Sunny 81 27.2 56 13.3 42 42 NW 14 22 30.14 1021 10 16 0.00 0.00
4:56 pm 16:56 Sunny 82 27.8 58 14.4 44 44 NNW 13 20 30.12 1020 10 16 0.00 0.00
5:56 pm 17:56 Sunny 81 27.2 58 14.4 45 45 NNW 12 19 30.12 1020 10 16 0.00 0.00
6:56 pm 18:56 Sunny 81 27.2 57 13.9 44 44 NNW 10 17 30.11 1020 10 16 0.00 0.00
7:56 pm 19:56 Sunny 77 25 61 16.1 58 58 N 9 15 30.12 1020 10 16 0.00 0.00
8:56 pm 20:56 Sunny 73 22.8 60 15.6 64 64 undefined N/A 30.14 1021 10 16 0.00 0.00
9:56 pm 21:56 Clear 71 21.7 62 16.7 73 73 NNE 5 7 30.15 1021 10 16 0.00 0.00
10:56 pm 22:56 Clear 68 20 63 17.2 84 84 N 5 7 30.17 1022 10 16 0.00 0.00
11:56 pm 23:56 Clear 69 20.6 64 17.8 84 84 Calm 30.18 1022 10 16 0.00 0.00

Powered by AerisWeather